| time (UTC) | temp C | wind direction | speed KPH | gust KPH | rain 1hr cm | rain 24hr cm | rain mn cm | humidity % | barometer mb |
| 20260505035516 | 18 | 0.0 | 1.6 | 0.00 | 0.00 | 0.00 | 71 | 1009.4 | |
| 20260505035017 | 19 | 0.0 | 1.6 | 0.00 | 0.00 | 0.00 | 70 | 1009.3 | |
| 20260505034516 | 19 | 45 | 1.6 | 1.6 | 0.00 | 0.00 | 0.00 | 70 | 1009.4 |
| 20260505034056 | 19 | 0 | 1.6 | 3.2 | 0.00 | 0.00 | 0.00 | 70 | 1009.2 |
| 20260505033516 | 20 | 45 | 1.6 | 1.6 | 0.00 | 0.00 | 0.00 | 69 | 1009.2 |
| 20260505033017 | 20 | 45 | 1.6 | 3.2 | 0.00 | 0.00 | 0.00 | 69 | 1009.1 |
| 20260505032516 | 20 | 45 | 1.6 | 3.2 | 0.00 | 0.00 | 0.00 | 69 | 1009.1 |
| 20260505032016 | 20 | 45 | 1.6 | 3.2 | 0.00 | 0.00 | 0.00 | 69 | 1009.1 |
| 20260505031556 | 20 | 0.0 | 3.2 | 0.00 | 0.00 | 0.00 | 69 | 1009.1 | |
| 20260505031016 | 20 | 45 | 1.6 | 1.6 | 0.00 | 0.00 | 0.00 | 67 | 1009.1 |
| 20260505030517 | 20 | 45 | 1.6 | 3.2 | 0.00 | 0.00 | 0.00 | 66 | 1009.0 |
| 20260505030017 | 20 | 45 | 1.6 | 3.2 | 0.00 | 0.00 | 0.00 | 65 | 1009.0 |
| 20260505025516 | 20 | 45 | 1.6 | 3.2 | 0.00 | 0.00 | 0.00 | 65 | 1009.0 |
| 20260505025017 | 21 | 45 | 1.6 | 1.6 | 0.00 | 0.00 | 0.00 | 65 | 1009.0 |
| 20260505024517 | 21 | 45 | 1.6 | 3.2 | 0.00 | 0.00 | 0.00 | 64 | 1008.9 |
| 20260505024016 | 21 | 45 | 1.6 | 1.6 | 0.00 | 0.00 | 0.00 | 64 | 1008.9 |
| 20260505023517 | 21 | 0.0 | 1.6 | 0.00 | 0.00 | 0.00 | 62 | 1008.8 | |
| 20260505023016 | 21 | 45 | 1.6 | 3.2 | 0.00 | 0.00 | 0.00 | 61 | 1008.7 |
| 20260505022516 | 21 | 45 | 1.6 | 3.2 | 0.00 | 0.00 | 0.00 | 62 | 1008.7 |
| 20260505022056 | 22 | 45 | 1.6 | 1.6 | 0.00 | 0.00 | 0.00 | 62 | 1008.7 |
| 20260505021517 | 22 | 45 | 1.6 | 3.2 | 0.00 | 0.00 | 0.00 | 61 | 1008.7 |
| 20260505021017 | 22 | 0.0 | 1.6 | 0.00 | 0.00 | 0.00 | 60 | 1008.7 | |
| 20260505020516 | 22 | 45 | 1.6 | 3.2 | 0.00 | 0.00 | 0.00 | 59 | 1008.7 |
| 20260505020057 | 22 | 45 | 1.6 | 1.6 | 0.00 | 0.00 | 0.00 | 56 | 1008.7 |
| 20260505015556 | 23 | 0.0 | 3.2 | 0.00 | 0.00 | 0.00 | 56 | 1008.7 | |
| 20260505015016 | 23 | 45 | 1.6 | 1.6 | 0.00 | 0.00 | 0.00 | 57 | 1008.7 |
| 20260505014516 | 23 | 45 | 1.6 | 3.2 | 0.00 | 0.00 | 0.00 | 56 | 1008.7 |
| 20260505014017 | 23 | 45 | 1.6 | 3.2 | 0.00 | 0.00 | 0.00 | 54 | 1008.7 |
| 20260505013516 | 23 | 45 | 1.6 | 3.2 | 0.00 | 0.00 | 0.00 | 52 | 1008.7 |
| 20260505013017 | 24 | 45 | 1.6 | 3.2 | 0.00 | 0.00 | 0.00 | 54 | 1008.8 |
| 20260505012517 | 24 | 0.0 | 1.6 | 0.00 | 0.00 | 0.00 | 52 | 1008.8 | |
| 20260505012017 | 25 | 0.0 | 3.2 | 0.00 | 0.00 | 0.00 | 49 | 1008.8 | |
| 20260505011557 | 25 | 0.0 | 3.2 | 0.00 | 0.00 | 0.00 | 45 | 1008.9 | |
| 20260505011016 | 25 | 0.0 | 3.2 | 0.00 | 0.00 | 0.00 | 49 | 1008.9 | |
| 20260505010517 | 25 | 315 | 1.6 | 3.2 | 0.00 | 0.00 | 0.00 | 45 | 1008.9 |
| 20260505010016 | 26 | 0.0 | 3.2 | 0.00 | 0.00 | 0.00 | 46 | 1009.0 | |
| 20260505005517 | 26 | 0.0 | 1.6 | 0.00 | 0.00 | 0.00 | 48 | 1009.0 | |
| 20260505005016 | 26 | 0.0 | 4.8 | 0.00 | 0.00 | 0.00 | 45 | 1009.0 | |
| 20260505004516 | 27 | 0.0 | 6.4 | 0.00 | 0.00 | 0.00 | 41 | 1009.0 | |
| 20260505004016 | 27 | 203 | 1.6 | 4.8 | 0.00 | 0.00 | 0.00 | 44 | 1008.9 |
| 20260505003556 | 27 | 0.0 | 3.2 | 0.00 | 0.00 | 0.00 | 42 | 1009.0 | |
| 20260505003016 | 27 | 0.0 | 3.2 | 0.00 | 0.00 | 0.00 | 42 | 1008.9 | |
| 20260505002516 | 27 | 0.0 | 3.2 | 0.00 | 0.00 | 0.00 | 42 | 1008.9 | |
| 20260505002016 | 27 | 225 | 1.6 | 4.8 | 0.00 | 0.00 | 0.00 | 41 | 1008.9 |
| 20260505001556 | 27 | 225 | 1.6 | 4.8 | 0.00 | 0.00 | 0.00 | 43 | 1008.9 |
| 20260505001017 | 27 | 113 | 1.6 | 4.8 | 0.00 | 0.00 | 0.00 | 42 | 1008.9 |
| 20260505000516 | 27 | 270 | 1.6 | 4.8 | 0.00 | 0.00 | 0.00 | 38 | 1008.9 |
| 20260505000016 | 27 | 135 | 1.6 | 4.8 | 0.00 | 0.00 | 0.00 | 42 | 1009.0 |
| 20260504235516 | 27 | 225 | 1.6 | 8.0 | 0.00 | 0.00 | 0.00 | 38 | 1008.9 |
| 20260504235016 | 28 | 225 | 1.6 | 6.4 | 0.00 | 0.00 | 0.00 | 38 | 1009.0 |
| 20260504234516 | 28 | 135 | 1.6 | 6.4 | 0.00 | 0.00 | 0.00 | 36 | 1009.1 |
| 20260504234016 | 28 | 248 | 1.6 | 8.0 | 0.00 | 0.00 | 0.00 | 40 | 1009.0 |
| 20260504233556 | 28 | 203 | 1.6 | 4.8 | 0.00 | 0.00 | 0.00 | 37 | 1009.0 |
| 20260504233016 | 28 | 203 | 1.6 | 6.4 | 0.00 | 0.00 | 0.00 | 36 | 1009.0 |
| 20260504232516 | 28 | 90 | 1.6 | 6.4 | 0.00 | 0.00 | 0.00 | 38 | 1009.0 |
| 20260504232016 | 27 | 113 | 1.6 | 4.8 | 0.00 | 0.00 | 0.00 | 38 | 1009.2 |
| 20260504231516 | 28 | 45 | 1.6 | 3.2 | 0.00 | 0.00 | 0.00 | 38 | 1009.1 |
| 20260504231016 | 27 | 135 | 1.6 | 6.4 | 0.00 | 0.00 | 0.00 | 40 | 1009.2 |
| 20260504230516 | 28 | 225 | 1.6 | 4.8 | 0.00 | 0.00 | 0.00 | 40 | 1009.3 |
| 20260504230015 | 27 | 113 | 1.6 | 4.8 | 0.00 | 0.00 | 0.00 | 40 | 1009.3 |
| 20260504225516 | 27 | 203 | 1.6 | 6.4 | 0.00 | 0.00 | 0.00 | 45 | 1009.4 |
| 20260504225016 | 27 | 225 | 1.6 | 4.8 | 0.00 | 0.00 | 0.00 | 44 | 1009.5 |
| 20260504224516 | 27 | 45 | 1.6 | 6.4 | 0.00 | 0.00 | 0.00 | 40 | 1009.5 |
| 20260504224055 | 27 | 45 | 1.6 | 6.4 | 0.00 | 0.00 | 0.00 | 41 | 1009.6 |
| 20260504223516 | 27 | 135 | 1.6 | 4.8 | 0.00 | 0.00 | 0.00 | 46 | 1009.6 |
| 20260504223016 | 27 | 135 | 1.6 | 4.8 | 0.00 | 0.00 | 0.00 | 45 | 1009.6 |
| 20260504222516 | 27 | 225 | 1.6 | 4.8 | 0.00 | 0.00 | 0.00 | 44 | 1009.7 |
| 20260504222016 | 27 | 225 | 1.6 | 8.0 | 0.00 | 0.00 | 0.00 | 41 | 1009.8 |
| 20260504221516 | 27 | 113 | 1.6 | 3.2 | 0.00 | 0.00 | 0.00 | 43 | 1009.8 |
| 20260504221056 | 27 | 225 | 3.2 | 8.0 | 0.00 | 0.00 | 0.00 | 44 | 1009.9 |
| 20260504220515 | 27 | 45 | 1.6 | 3.2 | 0.00 | 0.00 | 0.00 | 45 | 1010.0 |
| 20260504220016 | 27 | 113 | 1.6 | 4.8 | 0.00 | 0.00 | 0.00 | 47 | 1010.0 |
| 20260504215516 | 27 | 135 | 1.6 | 6.4 | 0.00 | 0.00 | 0.00 | 43 | 1010.0 |
| 20260504215015 | 26 | 225 | 3.2 | 8.0 | 0.00 | 0.00 | 0.00 | 44 | 1010.1 |
| 20260504214515 | 26 | 225 | 1.6 | 6.4 | 0.00 | 0.00 | 0.00 | 45 | 1010.2 |
| 20260504214016 | 26 | 113 | 1.6 | 6.4 | 0.00 | 0.00 | 0.00 | 52 | 1010.2 |
| 20260504213515 | 26 | 225 | 1.6 | 8.0 | 0.00 | 0.00 | 0.00 | 45 | 1010.3 |
| 20260504213016 | 26 | 270 | 1.6 | 6.4 | 0.00 | 0.00 | 0.00 | 43 | 1010.3 |
| 20260504212556 | 27 | 113 | 3.2 | 6.4 | 0.00 | 0.00 | 0.00 | 46 | 1010.4 |
| 20260504212015 | 26 | 225 | 1.6 | 4.8 | 0.00 | 0.00 | 0.00 | 48 | 1010.3 |
| 20260504211556 | 26 | 135 | 1.6 | 6.4 | 0.00 | 0.00 | 0.00 | 52 | 1010.3 |
| 20260504211015 | 26 | 113 | 1.6 | 3.2 | 0.00 | 0.00 | 0.00 | 48 | 1010.3 |
| 20260504210555 | 26 | 90 | 1.6 | 4.8 | 0.00 | 0.00 | 0.00 | 44 | 1010.3 |
| 20260504210015 | 25 | 225 | 1.6 | 4.8 | 0.00 | 0.00 | 0.00 | 49 | 1010.3 |
| 20260504205516 | 25 | 225 | 1.6 | 8.0 | 0.00 | 0.00 | 0.00 | 45 | 1010.3 |
| 20260504205015 | 25 | 248 | 1.6 | 8.0 | 0.00 | 0.00 | 0.00 | 47 | 1010.4 |
| 20260504204556 | 25 | 225 | 3.2 | 6.4 | 0.00 | 0.00 | 0.00 | 50 | 1010.4 |
| 20260504204055 | 25 | 113 | 1.6 | 4.8 | 0.00 | 0.00 | 0.00 | 48 | 1010.4 |
| 20260504203515 | 25 | 225 | 1.6 | 8.0 | 0.00 | 0.00 | 0.00 | 48 | 1010.3 |
| 20260504203016 | 25 | 225 | 1.6 | 8.0 | 0.00 | 0.00 | 0.00 | 46 | 1010.3 |
| 20260504202555 | 25 | 113 | 1.6 | 6.4 | 0.00 | 0.00 | 0.00 | 47 | 1010.3 |
| 20260504202015 | 25 | 113 | 1.6 | 8.0 | 0.00 | 0.00 | 0.00 | 51 | 1010.3 |
| 20260504201556 | 25 | 113 | 1.6 | 6.4 | 0.00 | 0.00 | 0.00 | 49 | 1010.2 |
| 20260504201015 | 25 | 113 | 1.6 | 4.8 | 0.00 | 0.00 | 0.00 | 52 | 1010.3 |
| 20260504200556 | 25 | 113 | 1.6 | 8.0 | 0.00 | 0.00 | 0.00 | 49 | 1010.3 |
| 20260504200015 | 25 | 113 | 1.6 | 4.8 | 0.00 | 0.00 | 0.00 | 52 | 1010.3 |
| 20260504195516 | 25 | 225 | 3.2 | 9.7 | 0.00 | 0.00 | 0.00 | 52 | 1010.3 |
| 20260504195015 | 25 | 225 | 1.6 | 4.8 | 0.00 | 0.00 | 0.00 | 50 | 1010.4 |
| 20260504194555 | 25 | 113 | 1.6 | 8.0 | 0.00 | 0.00 | 0.00 | 49 | 1010.3 |
| 20260504194056 | 25 | 225 | 1.6 | 4.8 | 0.00 | 0.00 | 0.00 | 49 | 1010.3 |
| 20260504193555 | 26 | 113 | 1.6 | 4.8 | 0.00 | 0.00 | 0.00 | 50 | 1010.4 |
| 20260504193016 | 26 | 113 | 1.6 | 6.4 | 0.00 | 0.00 | 0.00 | 52 | 1010.5 |
| 20260504192515 | 25 | 135 | 1.6 | 3.2 | 0.00 | 0.00 | 0.00 | 58 | 1010.6 |
| 20260504192015 | 25 | 113 | 1.6 | 6.4 | 0.00 | 0.00 | 0.00 | 52 | 1010.6 |
| 20260504191515 | 25 | 135 | 1.6 | 6.4 | 0.00 | 0.00 | 0.00 | 53 | 1010.7 |
| 20260504191015 | 25 | 135 | 3.2 | 8.0 | 0.00 | 0.00 | 0.00 | 47 | 1010.7 |
| 20260504190518 | 25 | 135 | 1.6 | 8.0 | 0.00 | 0.00 | 0.00 | 48 | 1010.8 |
| 20260504190018 | 25 | 113 | 1.6 | 6.4 | 0.00 | 0.00 | 0.00 | 49 | 1010.8 |
| 20260504185517 | 25 | 135 | 1.6 | 4.8 | 0.00 | 0.00 | 0.00 | 46 | 1010.8 |
| 20260504185015 | 25 | 180 | 1.6 | 8.0 | 0.00 | 0.00 | 0.00 | 49 | 1010.8 |
| 20260504184517 | 25 | 45 | 1.6 | 3.2 | 0.00 | 0.00 | 0.00 | 50 | 1010.7 |
| 20260504184017 | 24 | 113 | 1.6 | 4.8 | 0.00 | 0.00 | 0.00 | 49 | 1010.7 |
| 20260504183518 | 24 | 0.0 | 3.2 | 0.00 | 0.00 | 0.00 | 44 | 1010.7 | |
| 20260504183057 | 24 | 113 | 1.6 | 4.8 | 0.00 | 0.00 | 0.00 | 51 | 1010.7 |
| 20260504182557 | 24 | 113 | 1.6 | 4.8 | 0.00 | 0.00 | 0.00 | 51 | 1010.7 |
| 20260504182057 | 23 | 113 | 1.6 | 3.2 | 0.00 | 0.00 | 0.00 | 54 | 1010.8 |
| 20260504181517 | 23 | 113 | 1.6 | 4.8 | 0.00 | 0.00 | 0.00 | 53 | 1010.8 |
| 20260504181017 | 23 | 203 | 1.6 | 3.2 | 0.00 | 0.00 | 0.00 | 58 | 1010.8 |
| 20260504180557 | 23 | 135 | 1.6 | 3.2 | 0.00 | 0.00 | 0.00 | 54 | 1010.8 |
| 20260504180018 | 23 | 113 | 1.6 | 6.4 | 0.00 | 0.00 | 0.00 | 59 | 1010.8 |
| 20260504175517 | 22 | 225 | 1.6 | 6.4 | 0.00 | 0.00 | 0.00 | 57 | 1010.9 |
| 20260504175057 | 23 | 225 | 1.6 | 6.4 | 0.00 | 0.00 | 0.00 | 52 | 1010.8 |
| 20260504174517 | 23 | 90 | 1.6 | 4.8 | 0.00 | 0.00 | 0.00 | 53 | 1010.7 |
| 20260504174017 | 23 | 113 | 1.6 | 4.8 | 0.00 | 0.00 | 0.00 | 53 | 1010.7 |
| 20260504173517 | 23 | 113 | 1.6 | 4.8 | 0.00 | 0.00 | 0.00 | 57 | 1010.8 |
| 20260504173017 | 23 | 90 | 1.6 | 4.8 | 0.00 | 0.00 | 0.00 | 55 | 1010.8 |
| 20260504172557 | 22 | 180 | 1.6 | 8.0 | 0.00 | 0.00 | 0.00 | 55 | 1010.7 |
| 20260504172017 | 22 | 113 | 1.6 | 3.2 | 0.00 | 0.00 | 0.00 | 58 | 1010.7 |
| 20260504171517 | 22 | 113 | 1.6 | 3.2 | 0.00 | 0.00 | 0.00 | 65 | 1010.8 |
| 20260504171017 | 22 | 113 | 1.6 | 3.2 | 0.00 | 0.00 | 0.00 | 67 | 1010.7 |
| 20260504170517 | 21 | 90 | 1.6 | 3.2 | 0.00 | 0.00 | 0.00 | 60 | 1010.7 |
| 20260504151017 | 13 | 0.0 | 3.2 | 0.00 | 0.00 | 0.00 | 83 | 1010.0 | |
| 20260504150517 | 13 | 315 | 1.6 | 3.2 | 0.00 | 0.00 | 0.00 | 84 | 1009.9 |
| 20260504141056 | 12 | 0.0 | 1.6 | 0.00 | 0.00 | 0.00 | 84 | 1009.7 | |
| 20260504140517 | 12 | 0.0 | 1.6 | 0.00 | 0.00 | 0.00 | 84 | 1009.7 | |
| 20260504130516 | 12 | 0 | 1.6 | 3.2 | 0.00 | 0.00 | 0.00 | 77 | 1009.5 |
| 20260504110516 | 13 | 45 | 1.6 | 3.2 | 0.00 | 0.00 | 0.00 | 76 | 1009.6 |
| 20260504100516 | 16 | 45 | 1.6 | 3.2 | 0.00 | 0.00 | 0.00 | 63 | 1009.2 |
| 20260504081516 | 16 | 315 | 1.6 | 4.8 | 0.00 | 0.00 | 0.00 | 63 | 1009.3 |
| 20260504081016 | 16 | 45 | 1.6 | 3.2 | 0.00 | 0.00 | 0.00 | 63 | 1009.3 |
| 20260504080516 | 16 | 45 | 1.6 | 3.2 | 0.00 | 0.00 | 0.00 | 59 | 1009.2 |
| 20260504050517 | 20 | 45 | 1.6 | 3.2 | 0.00 | 0.00 | 0.00 | 51 | 1009.2 |
| 20260504050017 | 20 | 45 | 1.6 | 3.2 | 0.00 | 0.00 | 0.00 | 48 | 1009.2 |
| 20260504045517 | 20 | 45 | 1.6 | 4.8 | 0.00 | 0.00 | 0.00 | 49 | 1009.1 |
| 20260504045017 | 20 | 45 | 1.6 | 4.8 | 0.00 | 0.00 | 0.00 | 49 | 1009.1 |
| 20260504044517 | 20 | 45 | 1.6 | 3.2 | 0.00 | 0.00 | 0.00 | 49 | 1009.0 |
| 20260504044017 | 20 | 45 | 1.6 | 3.2 | 0.00 | 0.00 | 0.00 | 49 | 1009.1 |
| 20260504043517 | 20 | 45 | 1.6 | 3.2 | 0.00 | 0.00 | 0.00 | 51 | 1009.2 |
| 20260504043017 | 20 | 45 | 1.6 | 3.2 | 0.00 | 0.00 | 0.00 | 50 | 1009.2 |
| 20260504042517 | 20 | 45 | 1.6 | 3.2 | 0.00 | 0.00 | 0.00 | 52 | 1009.1 |
| 20260504042016 | 20 | 45 | 1.6 | 3.2 | 0.00 | 0.00 | 0.00 | 53 | 1009.1 |
| 20260504041557 | 20 | 45 | 1.6 | 1.6 | 0.00 | 0.00 | 0.00 | 54 | 1009.1 |
| 20260504041056 | 20 | 45 | 1.6 | 1.6 | 0.00 | 0.00 | 0.00 | 50 | 1009.1 |
| 20260504040517 | 20 | 45 | 1.6 | 1.6 | 0.00 | 0.00 | 0.00 | 53 | 1009.1 |
| 20260504040017 | 20 | 45 | 1.6 | 1.6 | 0.00 | 0.00 | 0.00 | 51 | 1009.0 |